Weather History for Annette Island, AK

Change the Weather History Date:

Thursday, October 4, 2012

  Actual Average Record
Temperature  
Mean Temperature 48 °F 50 °F  
Max Temperature 58 °F 55 °F 64 °F (1964)
Min Temperature 37 °F 45 °F 34 °F (1974)
Degree Days  
Heating Degree Days 17 15  
Month to date heating degree days 68 59  
Since 1 July heating degree days 861 794  
Cooling Degree Days 0    
Month to date cooling degree days 0  
Year to date cooling degree days 7  
Moisture  
Dew Point 42 °F    
Average Humidity 0    
Maximum Humidity 0    
Minimum Humidity 0    
Precipitation  
Precipitation 0.00 in 0.39 in 2.10 in (1980)
Month to date precipitation 0.15 1.57  
Year to date precipitation 77.33 66.27  
Snow  
Snow 0.00 in 0.00 in 0.00 in (2014)
Month to date snowfall 0.0 0.0  
Since 1 July snowfall 0.0 0.0  
Since 1 September snowfall 0.0 0.0  
Snow Depth 0.00 in    
Sea Level Pressure  
Sea Level Pressure 30.49 in    
Wind  
Wind Speed 2 mph (NW)    
Max Wind Speed 7 mph    
Max Gust Speed 9 mph    
Visibility 10 miles    
Events      
T = Trace of Precipitation, MM = Missing Value Source: NWS Daily Summary

Daily Weather History Graph

Daily Weather History Graph

Search for Another Location

Airport:

Trip Planner

Search our weather history database for the weather conditions in past years. The results will help you decide how hot, cold, wet, or windy it might be!

Date:

Astronomy

Oct. 04, 2012 Rise Set
Actual Time 6:55 AM AKDT 6:12 PM AKDT
Civil Twilight 6:19 AM AKDT 6:48 PM AKDT
Nautical Twilight 5:37 AM AKDT 7:30 PM AKDT
Astronomical Twilight 4:54 AM AKDT 8:13 PM AKDT
Moon 8:06 PM AKDT (10/4) 12:06 PM AKDT (10/4)
Length of Visible Light 12h 29m
Length of Day
11h 16m
Waning Gibbous, 81% of the Moon is Illuminated
Oct 4
Waning Gibbous
Oct 7
Last Quarter
Oct 15
New
Oct 21
First Quarter
Oct 29
Full

Hourly Weather History & Observations

Time (AKDT) Temp. Dew Point Humidity Pressure Visibility Wind Dir Wind Speed Gust Speed Precip Events Conditions
12:53 AM 41.0 °F 39.9 °F 96% 30.50 in 10.0 mi Calm Calm - N/A   Clear
1:53 AM 39.0 °F 37.9 °F 96% 30.50 in 10.0 mi Calm Calm - N/A   Clear
2:53 AM 39.0 °F 37.0 °F 93% 30.49 in 10.0 mi Calm Calm - N/A   Clear
3:53 AM 37.9 °F 37.0 °F 97% 30.50 in 10.0 mi Calm Calm - N/A   Mostly Cloudy
4:53 AM 37.0 °F 36.0 °F 96% 30.50 in 10.0 mi Calm Calm - N/A   Clear
5:53 AM 37.9 °F 37.0 °F 97% 30.50 in 10.0 mi Calm Calm - N/A   Clear
6:53 AM 37.9 °F 37.0 °F 97% 30.50 in 10.0 mi Calm Calm - N/A   Mostly Cloudy
7:53 AM 41.0 °F 39.9 °F 96% 30.50 in 10.0 mi Calm Calm - N/A   Mostly Cloudy
8:53 AM 48.0 °F 45.0 °F 89% 30.50 in 10.0 mi NW 3.5 mph - N/A   Mostly Cloudy
9:53 AM 52.0 °F 43.0 °F 71% 30.50 in 10.0 mi NNW 4.6 mph - N/A   Mostly Cloudy
10:53 AM 52.0 °F 43.0 °F 71% 30.50 in 10.0 mi Calm Calm - N/A   Mostly Cloudy
11:53 AM 53.1 °F 41.0 °F 64% 30.51 in 10.0 mi Calm Calm - N/A   Overcast
12:53 PM 52.0 °F 42.1 °F 69% 30.51 in 10.0 mi NNW 4.6 mph - N/A   Overcast
1:53 PM 55.0 °F 39.9 °F 57% 30.51 in 10.0 mi NW 3.5 mph - N/A   Mostly Cloudy
2:53 PM 57.0 °F 41.0 °F 55% 30.50 in 10.0 mi NW 5.8 mph - N/A   Mostly Cloudy
3:53 PM 55.9 °F 43.0 °F 62% 30.49 in 10.0 mi NW 5.8 mph - N/A   Mostly Cloudy
4:53 PM 54.0 °F 46.0 °F 75% 30.49 in 10.0 mi NW 4.6 mph - N/A   Mostly Cloudy
5:24 PM 51.8 °F 44.6 °F 76% 30.48 in 10.0 mi NNW 3.5 mph - N/A   Overcast
5:51 PM 51.8 °F 46.4 °F 82% 30.48 in 10.0 mi North 3.5 mph - N/A   Overcast
5:53 PM 51.1 °F 46.0 °F 83% 30.48 in 10.0 mi NNW 3.5 mph - N/A   Overcast
6:53 PM 51.1 °F 45.0 °F 80% 30.48 in 10.0 mi NNW 5.8 mph - N/A   Overcast
7:36 PM 51.8 °F 44.6 °F 76% 30.48 in 10.0 mi NW 6.9 mph - N/A   Overcast
7:53 PM 50.0 °F 45.0 °F 83% 30.48 in 10.0 mi NW 4.6 mph - N/A   Scattered Clouds
8:53 PM 50.0 °F 45.0 °F 83% 30.47 in 10.0 mi North 4.6 mph - N/A   Mostly Cloudy
9:53 PM 48.9 °F 46.0 °F 90% 30.48 in 10.0 mi NW 4.6 mph - N/A   Mostly Cloudy
10:26 PM 51.8 °F 46.4 °F 82% 30.48 in 10.0 mi NW 6.9 mph - N/A   Overcast
10:53 PM 51.1 °F 46.9 °F 86% 30.48 in 10.0 mi NW 4.6 mph - N/A   Overcast
11:53 PM 51.1 °F 46.9 °F 86% 30.48 in 10.0 mi WNW 3.5 mph - N/A   Overcast